Погода в Верхнерусском

Россия / Ставропольский край     45°07′56″N   41°56′38″E
темп.,
°C
ветер,
м/с
пор.,
м/с
влажн.,
%
обл.,
%
осадки,
мм/ч
давл.,
гПа
погр.,
м
17 мая, пн
пн1700:00+17вюв8164896 0.0 1003325
03:00+15вюв5115445 0.0 1004187
06:00+15юв33673 0.0 100561
09:00+21зсз33621 0.0 1006522
12:00+23сз6662100 0.0 1007887
15:00+23ссз675960 0.0 10071190
18:00+20зсз51079100 0.0 1007379
21:00+16з61193100 1.9 1009329
18 мая, вт
вт1800:00+15з81497100 8.3 1008565
03:00+14зсз71396100 12.2 1009547
06:00+14зсз51098100 3.0 1010508
09:00+14зюз4897100 4.2 1010480
12:00+18зсз6775100 2.2 10111017
15:00+20зсз5664100 2.2 10101326
18:00+19зсз357597 0.0 1011366
21:00+15ююз11874 0.0 101211
19 мая, ср
ср1900:00+14ю22885 0.0 101113
03:00+14ю228685 0.0 101114
06:00+14з4688100 0.1 1012190
09:00+13з61097100 3.3 1014602
12:00+13зсз2794100 4.5 1015388
15:00+17з611739 4.9 10151461
18:00+16з510730 0.0 10161068
21:00+11юз34850 0.0 101756
20 мая, чт
чт2000:00+9ююз34860 0.0 101849
03:00+9зюз413810 0.0 1019331
06:00+11ююз47790 0.0 1020198
09:00+16юз33610 0.0 1019722
12:00+19з22475 0.0 10181208
15:00+21ссв22435 0.0 10181381
18:00+19св346374 0.0 101789
21:00+14в47680 0.0 1018101
21 мая, пт
пт2100:00+13вюв410742 0.0 1017164
03:00+13вюв614774 0.0 1017263
06:00+14вюв717781 0.0 1016400
09:00+19вюв915655 0.0 1016644
12:00+22вюв912564 0.0 1016827
15:00+24вюв8115862 0.0 1015977
18:00+22вюв814645 0.0 1015677
21:00+19вюв919660 0.0 1015588